Notices

What's New in latest Release from April 7th, 2021:

- Updated Glossary, including Speed of Maximum Gust, and Total Hourly Precipitation

- Updated national and regional climate services offices contacts and prices information

- Addition of station inventory lists for 1981-2010, 1971-2000, and 1961-1990 Normals.

If you haven't already, please take our survey and provide feedback about our website: https://eccc.sondage-survey.ca/f/LanguageSelection.aspx?s=442ca660-fcf1-47c0-95a9-59707d6fd709

Hourly Data Report for April 09, 2018

MIRAMICHI RCS
NEW BRUNSWICK
Current Station Operator: ECCC - MSC

47°00'34.000" N
65°27'54.000" W
33.00 m
8100989
71744
ACQ

Download Data

Hourly Data (April 2018)
Hourly Data Report for April 9, 2018
TIME
LST
Temp Definition
°C
Dew Point Definition
°C
Rel Hum Definition
%
Precip. Amount Definition
mm

Wind Dir Definition
10's deg

Wind Spd Definition
km/h
Visibility Definition
km
Stn Press Definition
kPa
Hmdx Definition


Wind Chill Definition


Weather Definition


00:00 -3.1 -12.8 47 0.0 31 13   100.06   -8 LegendNANA
01:00 -4.5 -13.2 50 0.0 30 13   100.00   -10 LegendNANA
02:00 -5.5 -13.0 56 0.0 29 13   99.97   -11 LegendNANA
03:00 -6.0 -13.2 56 0.0 30 16   99.98   -12 LegendNANA
04:00 -6.3 -13.3 57 0.0 29 17   100.00   -13 LegendNANA
05:00 -7.1 -13.2 62 0.0 27 16   100.01   -13 LegendNANA
06:00 -7.9 -13.5 64 0.0 26 19   100.07   -15 LegendNANA
07:00 -7.4 -13.8 60 0.0 26 22   100.11   -15 LegendNANA
08:00 -6.2 -14.1 54 0.0 27 27   100.14   -14 LegendNANA
09:00 -4.8 -15.0 45 0.0 28 33   100.14   -13 LegendNANA
10:00 -3.8 -14.4 43 0.0 29 29   100.17   -11 LegendNANA
11:00 -3.0 -15.5 37 0.0 29 35   100.18   -11 LegendNANA
12:00 -2.0 -15.7 34 0.0 27 35   100.19   -10 LegendNANA
13:00 -1.4 -15.3 34 0.0 29 35   100.26   -9 LegendNANA
14:00 -0.9 -15.2 33 0.0 29 26   100.35   -7 LegendNANA
15:00 -0.9 -15.6 32 0.0 29 28   100.44   -7 LegendNANA
16:00 -1.5 -14.9 35 0.0 30 23   100.59   -8 LegendNANA
17:00 -1.4 -14.3 37 0.0 29 26   100.71   -8 LegendNANA
18:00 -1.7 -13.6 40 0.0 30 25   100.83   -8 LegendNANA
19:00 -2.2 -13.6 41 0.0 30 17   100.94   -8 LegendNANA
20:00 -3.0 -13.2 45 0.0 28 15   101.08   -8 LegendNANA
21:00 -3.8 -13.3 47 0.0 26 12   101.17   -8 LegendNANA
22:00 -4.7 -13.4 50 0.0 25 12   101.22   -9 LegendNANA
23:00 -5.1 -13.5 52 0.0 26 13   101.25   -10 LegendNANA

Notes on Data Quality.

Legend

  • E = Estimated
  • M = Missing
  • NA = Not Available*
  • [empty] = Indicates an unobserved value
Date modified: